Regional Weather Roundup
Issued by NWS

Home | Current Version | Previous Version | Graphics & Text | Print | Product List | Glossary On
Versions: 1 2 3 4 5 6 7 8 9 10 11 12 13 14 15 16 17 18 19 20 21 22 23 24 25 26 27 28 29 30 31 32 33 34 35 36 37 38 39 40 41 42 43 44 45 46 47 48 49 50
000
ASUS45 KABQ 162201
RWRNM
NEW MEXICO REGIONAL WEATHER ROUNDUP
NATIONAL WEATHER SERVICE ALBUQUERQUE NM
300 PM MST SAT DEC 16 2017

NOTE: "FAIR" MEANS FEW OR NO CLOUDS BELOW 12,000 FEET AGL WITH NO
       SIGNIFICANT WEATHER OR OBSTRUCTIONS TO VISION.

      THIS PRODUCT IS RELEASED AS TWO VERSIONS.  ONE VERSION NEAR
      THE TOP OF THE HOUR CONTAINING PRELIMINARY DATA FROM ALBUQUERQUE
      AND OTHER STATIONS.  A FINAL VERSION WITH ADDITIONAL DATA IS
      ISSUED ABOUT 10 MINUTES AFTER THE HOUR.

NMZ501-503-504-510>518-162300-
NORTHWEST PLATEAU/NORTHCENTRAL MOUNTAINS

CITY           SKY/WX    TMP DP  RH WIND       PRES   REMARKS
FARMINGTON     FAIR      48   7  18 NW3       29.74S
LOS ALAMOS     FAIR      41  14  33 S10       29.75F
SANTA FE       FAIR      43  15  32 W12       29.74F
TAOS           FAIR      48   5  17 S6        29.75F
ANGEL FIRE     FAIR      49   2  14 W9        29.73S

$$
NMZ402-403-502-505>509-162300-
WESTCENTRAL MOUNTAINS/SOUTHWEST MOUNTAINS

CITY           SKY/WX    TMP DP  RH WIND       PRES   REMARKS
GALLUP         FAIR      51  -4  10 SW12      29.77S
GRANTS         FAIR      53  -4   9 NW7       29.77S
SILVER CITY    FAIR      53   8  16 W16       29.83S

$$
NMZ407-409-411-412-162300-
SOUTHERN DESERTS

CITY           SKY/WX    TMP DP  RH WIND       PRES   REMARKS
DEMING         FAIR      53  23  31 SW10      29.83S
LAS CRUCES     FAIR      56  21  26 SW14      29.83S
HOLLOMAN AFB   FAIR      53  20  28 SE9       29.83F
ALAMOGORDO     FAIR      52  19  28 S8        29.82F
T OR C         FAIR      52  18  26 S10       29.78F

$$
NMZ519>523-162300-
CENTRAL VALLEYS/CENTRAL HIGHLANDS

CITY           SKY/WX    TMP DP  RH WIND       PRES   REMARKS
ALBUQUERQUE    FAIR      46  16  30 S7        29.77F
DOUBLE EAGLE   MOSUNNY   45  12  26 SE9       29.77F
MORIARTY ARPT  FAIR      53   7  15 W14       29.74S
CLINES CORNERS FAIR      48   3  15 W29G36    29.71F
BELEN          FAIR      49  15  25 S12       29.76F
SOCORRO        FAIR      51  16  25 S14G22    29.77F

$$
NMZ524>526-539-540-162300-
SOUTHCENTRAL MOUNTAINS

CITY           SKY/WX    TMP DP  RH WIND       PRES   REMARKS
RUIDOSO        FAIR      48   9  20 E5        29.77F

$$
NMZ527>531-162300-
NORTHEAST HIGHLANDS/NORTHEAST PLAINS

CITY           SKY/WX    TMP DP  RH WIND       PRES   REMARKS
LAS VEGAS      FAIR      55   7  14 S9        29.65S
RATON          FAIR      59   8  13 NE17      29.65R
CLAYTON        FAIR      52  12  20 S18G24    29.66S

$$
NMZ532>537-162300-
EASTCENTRAL PLAINS

CITY           SKY/WX    TMP DP  RH WIND       PRES   REMARKS
SANTA ROSA     FAIR      59  11  15 SW16G22   29.63F
TUCUMCARI      FAIR      60   4  10 SW17G25   29.63F
CANNON AFB     FAIR      56  15  19 S20       29.72R
CLOVIS AIRPORT FAIR      55  19  24 S21G28    29.72S

$$
NMZ028-029-538-162300-
SOUTHEAST PLAINS

CITY           SKY/WX    TMP DP  RH WIND       PRES   REMARKS
ROSWELL        FAIR      62  15  16 S15       29.68F
ARTESIA        FAIR      59  19  21 S18G26    29.72S
CARLSBAD       FAIR      59  21  23 CALM      29.72F
HOBBS          SUNNY     54  28  37 S21G28    29.78F


$$



USA.gov is the U.S. government's official web portal to all federal, state and local government web resources and services.